O'Neill, NE

6:20 AM CST on February 21, 2018 (GMT -0600)
The O'Neill Municipal-Baker

Weather History for KONL - November, 2015

Change the Weather History Date:

Saturday, November 14, 2015

  Actual Average Record
Temperature  
Mean Temperature 52 °F -  
Max Temperature 72 °F 47 °F 78 °F (1953)
Min Temperature 33 °F 25 °F -19 °F (1959)
Degree Days  
Heating Degree Days 12    
Growing Degree Days 2 (Base 50)    
Moisture  
Dew Point 31 °F    
Average Humidity 55    
Maximum Humidity 83    
Minimum Humidity 16    
Precipitation  
Precipitation 0.00 in - - ()
Sea Level Pressure  
Sea Level Pressure 29.99 in    
Wind  
Wind Speed 9 mph (SSW)    
Max Wind Speed 18 mph    
Max Gust Speed 26 mph    
Visibility 10 miles    
Events      
Averages and records for this station are not official NWS values.
T = Trace of Precipitation, MM = Missing Value Source: NWS Daily Summary

Daily Weather History Graph

Daily Weather History Graph

Search for Another Location

Airport or City:

Trip Planner

Search our weather history database for the weather conditions in past years. The results will help you decide how hot, cold, wet, or windy it might be!

Date:

Astronomy

Nov. 14, 2015 Rise Set
Actual Time 7:24 AM CST 5:13 PM CST
Civil Twilight 6:54 AM CST 5:43 PM CST
Nautical Twilight 6:20 AM CST 6:17 PM CST
Astronomical Twilight 5:46 AM CST 6:50 PM CST
Moon 9:53 AM CST (11/14) 7:51 PM CST (11/14)
Length of Visible Light 10h 49m
Length of Day
9h 49m
Waxing Crescent, 9% of the Moon is Illuminated
Nov 14
Waxing Crescent
Nov 19
First Quarter
Nov 25
Full
Dec 3
Last Quarter
Dec 11
New

Hourly Weather History & Observations

Time (CST) Temp. Windchill Dew Point Humidity Pressure Visibility Wind Dir Wind Speed Gust Speed Precip Events Conditions
12:15 AM 38.1 °F 32.3 °F 30.4 °F 74% 30.04 in 10.0 mi SW 8.1 mph - N/A   Clear
12:35 AM 37.0 °F 30.4 °F 30.2 °F 76% 30.04 in 10.0 mi SW 9.2 mph - N/A   Clear
12:55 AM 37.4 °F 31.4 °F 30.2 °F 75% 30.04 in 10.0 mi SW 8.1 mph - N/A   Clear
1:15 AM 37.6 °F 31.0 °F 30.2 °F 75% 30.03 in 10.0 mi SW 9.2 mph - N/A   Clear
1:35 AM 36.9 °F 31.4 °F 30.0 °F 76% 30.03 in 10.0 mi SW 6.9 mph - N/A   Clear
1:55 AM 39.2 °F 32.5 °F 30.6 °F 71% 30.03 in 10.0 mi SW 10.4 mph - N/A   Clear
2:15 AM 38.8 °F 32.6 °F 30.2 °F 71% 30.02 in 10.0 mi SSW 9.2 mph - N/A   Clear
2:35 AM 34.7 °F 28.1 °F 29.3 °F 81% 30.02 in 10.0 mi South 8.1 mph - N/A   Clear
2:55 AM 34.5 °F 28.6 °F 29.7 °F 82% 30.02 in 10.0 mi SSW 6.9 mph - N/A   Clear
3:15 AM 35.4 °F 29.0 °F 29.8 °F 80% 30.02 in 10.0 mi SSW 8.1 mph - N/A   Clear
3:35 AM 36.7 °F 31.2 °F 30.2 °F 77% 30.02 in 10.0 mi SW 6.9 mph - N/A   Clear
3:55 AM 36.1 °F 29.9 °F 30.2 °F 79% 30.01 in 10.0 mi SSW 8.1 mph - N/A   Clear
4:15 AM 37.0 °F 31.0 °F 30.2 °F 76% 30.01 in 10.0 mi SSW 8.1 mph - N/A   Clear
4:35 AM 36.5 °F 30.3 °F 30.2 °F 78% 30.01 in 10.0 mi SSW 8.1 mph - N/A   Clear
4:55 AM 35.6 °F 29.2 °F 30.0 °F 80% 30.01 in 10.0 mi SSW 8.1 mph - N/A   Clear
5:15 AM 34.2 °F 26.8 °F 29.3 °F 82% 30.01 in 10.0 mi SW 9.2 mph - N/A   Clear
5:35 AM 35.1 °F 29.3 °F 29.8 °F 81% 30.00 in 10.0 mi SSW 6.9 mph - N/A   Clear
5:55 AM 36.7 °F 28.9 °F 30.0 °F 77% 30.00 in 10.0 mi SSW 11.5 mph - N/A   Clear
6:15 AM 36.0 °F 29.0 °F 29.8 °F 78% 30.00 in 10.0 mi SW 9.2 mph - N/A   Clear
6:35 AM 34.0 °F 27.2 °F 29.3 °F 83% 30.01 in 10.0 mi SW 8.1 mph - N/A   Clear
6:55 AM 33.4 °F 26.6 °F 28.8 °F 83% 30.01 in 10.0 mi SW 8.1 mph - N/A   Clear
7:15 AM 35.6 °F 29.9 °F 29.1 °F 77% 30.01 in 10.0 mi SW 6.9 mph - N/A   Clear
7:35 AM 34.2 °F 26.8 °F 29.1 °F 82% 30.01 in 10.0 mi SW 9.2 mph - N/A   Clear
7:55 AM 36.0 °F 29.6 °F 29.3 °F 77% 30.01 in 10.0 mi SSW 8.1 mph - N/A   Clear
8:15 AM 36.0 °F 30.3 °F 29.7 °F 78% 30.01 in 10.0 mi SSW 6.9 mph - N/A   Clear
8:35 AM 37.9 °F 32.7 °F 30.6 °F 75% 30.02 in 10.0 mi SSW 6.9 mph - N/A   Clear
8:55 AM 40.8 °F 36.9 °F 32.0 °F 71% 30.02 in 10.0 mi SW 5.8 mph - N/A   Clear
9:15 AM 45.3 °F 41.6 °F 33.1 °F 62% 30.02 in 10.0 mi SW 6.9 mph - N/A   Clear
9:35 AM 49.5 °F - 31.8 °F 51% 30.02 in 10.0 mi SW 9.2 mph - N/A   Clear
9:55 AM 52.9 °F - 31.6 °F 44% 30.02 in 10.0 mi SW 10.4 mph - N/A   Clear
10:15 AM 55.8 °F - 31.6 °F 40% 30.02 in 10.0 mi WSW 6.9 mph - N/A   Clear
10:35 AM 59.4 °F - 30.9 °F 34% 30.01 in 10.0 mi WSW 9.2 mph - N/A   Clear
10:55 AM 61.9 °F - 30.0 °F 30% 30.01 in 10.0 mi WSW 8.1 mph - N/A   Clear
11:15 AM 64.8 °F - 29.1 °F 26% 30.00 in 10.0 mi SW 10.4 mph - N/A   Clear
11:35 AM 67.3 °F - 27.1 °F 22% 30.00 in 10.0 mi WSW 10.4 mph - N/A   Clear
11:55 AM 68.5 °F - 23.0 °F 18% 29.99 in 10.0 mi SW 15.0 mph - N/A   Clear
12:15 PM 69.1 °F - 25.5 °F 19% 29.98 in 10.0 mi SSW 10.4 mph - N/A   Clear
12:35 PM 69.4 °F - 24.8 °F 19% 29.97 in 10.0 mi SSW 10.4 mph 16.1 mph N/A   Clear
12:55 PM 70.0 °F - 23.2 °F 17% 29.97 in 10.0 mi SW 16.1 mph 20.7 mph N/A   Clear
1:15 PM 70.9 °F - 23.9 °F 17% 29.96 in 10.0 mi SW 18.4 mph 21.9 mph N/A   Clear
1:35 PM 70.7 °F - 24.6 °F 18% 29.95 in 10.0 mi SW 17.3 mph 21.9 mph N/A   Clear
1:55 PM 71.1 °F - 24.4 °F 17% 29.95 in 10.0 mi SW 15.0 mph 23.0 mph N/A   Clear
2:15 PM 71.8 °F - 24.3 °F 17% 29.95 in 10.0 mi SW 18.4 mph 26.5 mph N/A   Clear
2:35 PM 72.0 °F - 24.6 °F 17% 29.94 in 10.0 mi SW 17.3 mph - N/A   Clear
2:55 PM 72.0 °F - 23.2 °F 16% 29.94 in 10.0 mi SW 15.0 mph 26.5 mph N/A   Clear
3:15 PM 72.0 °F - 23.4 °F 16% 29.94 in 10.0 mi SW 15.0 mph 21.9 mph N/A   Clear
3:35 PM 70.9 °F - 28.9 °F 21% 29.95 in 10.0 mi South 16.1 mph 19.6 mph N/A   Clear
3:55 PM 68.7 °F - 30.9 °F 25% 29.95 in 10.0 mi South 15.0 mph - N/A   Clear
4:15 PM 67.5 °F - 29.7 °F 24% 29.95 in 10.0 mi SSW 13.8 mph - N/A   Clear
4:35 PM 66.0 °F - 29.8 °F 26% 29.95 in 10.0 mi South 12.7 mph - N/A   Clear
4:55 PM 63.9 °F - 30.6 °F 29% 29.95 in 10.0 mi South 10.4 mph - N/A   Clear
5:15 PM 59.9 °F - 30.9 °F 33% 29.95 in 10.0 mi South 9.2 mph - N/A   Clear
5:35 PM 58.1 °F - 30.9 °F 36% 29.95 in 10.0 mi South 10.4 mph - N/A   Clear
5:55 PM 55.9 °F - 31.1 °F 39% 29.95 in 10.0 mi South 8.1 mph - N/A   Clear
6:15 PM 54.5 °F - 32.0 °F 42% 29.96 in 10.0 mi South 9.2 mph - N/A   Clear
6:35 PM 52.7 °F - 32.9 °F 47% 29.97 in 10.0 mi South 8.1 mph - N/A   Clear
6:55 PM 52.0 °F - 33.8 °F 50% 29.97 in 10.0 mi South 9.2 mph - N/A   Clear
7:15 PM 52.5 °F - 34.9 °F 51% 29.97 in 10.0 mi South 9.2 mph - N/A   Clear
7:35 PM 52.0 °F - 35.6 °F 54% 29.97 in 10.0 mi South 8.1 mph - N/A   Clear
7:55 PM 51.1 °F - 36.0 °F 56% 29.97 in 10.0 mi South 9.2 mph - N/A   Clear
8:15 PM 49.6 °F - 36.1 °F 60% 29.97 in 10.0 mi South 8.1 mph - N/A   Clear
8:35 PM 49.1 °F - 36.5 °F 62% 29.97 in 10.0 mi SSW 8.1 mph - N/A   Clear
8:55 PM 49.3 °F - 36.9 °F 62% 29.97 in 10.0 mi SSW 8.1 mph - N/A   Clear
9:15 PM 48.6 °F - 36.7 °F 64% 29.97 in 10.0 mi SSW 6.9 mph - N/A   Clear
9:35 PM 47.1 °F - 36.5 °F 67% 29.97 in 10.0 mi SSW 6.9 mph - N/A   Clear
9:55 PM 45.5 °F 41.8 °F 36.3 °F 70% 29.97 in 10.0 mi SSW 6.9 mph - N/A   Clear
10:15 PM 44.4 °F 41.2 °F 35.8 °F 72% 29.97 in 10.0 mi SSW 5.8 mph - N/A   Clear
10:35 PM 44.1 °F 41.5 °F 35.8 °F 73% 29.97 in 10.0 mi SSW 4.6 mph - N/A   Clear
10:55 PM 43.3 °F 39.9 °F 35.2 °F 73% 29.97 in 10.0 mi SSW 5.8 mph - N/A   Clear
11:15 PM 43.0 °F 40.3 °F 35.1 °F 74% 29.96 in 10.0 mi South 4.6 mph - N/A   Clear
11:35 PM 41.5 °F 38.6 °F 35.1 °F 78% 29.97 in 10.0 mi South 4.6 mph - N/A   Clear
11:55 PM 41.5 °F 36.4 °F 35.4 °F 79% 29.97 in 10.0 mi South 8.1 mph - N/A   Clear